[[{"header":{"parameterUnit":"m.s-1","parameterCategory":1,"la1":30.2991,"la2":30.254,"lo1":-89.0895,"lo2":-89.0444,"dy":0.0017,"dx":0.0017,"nx":28,"ny":28,"refTime":"2023-08-17T03:00:00:Z","depth":0,"parameterNumber":2,"parameterNumberName":"U-component_of_WINDS"},"data":[0,0,0,0,0,0,0,0,0,0,0,0,0,0,0,0,0,0,0,0,0,0,0,0,0,0,0,0,0,0,0,0,0,0,0,0,0,0,0,0,0,0,0,0,0,0,0,0,0,0,0,0,0,0,0,0,0,0,-0.5056,-0.5057,0,-0.5143,-0.5144,-0.5145,-0.5156,-0.5155,-0.5154,-0.5153,-0.5242,-0.5245,-0.5248,0,0,0,0,0,0,0,0,0,0,0,0,0,-0.49,-0.4903,-0.5056,-0.5057,-0.5058,-0.5143,-0.5144,-0.5145,-0.5156,-0.5155,-0.5154,-0.5153,-0.5241,-0.5245,-0.5248,0,0,0,0,0,0,0,0,0,0,0,0,0,-0.4975,-0.4904,-0.5056,-0.5074,-0.5076,-0.5142,-0.5144,-0.5145,-0.5156,-0.5155,-0.5154,-0.5152,-0.524,-0.5244,-0.5249,-0.5303,0,0,-0.5263,-0.5265,0,0,0,0,0,0,0,0,-0.4971,-0.4981,-0.507,-0.5073,-0.5076,-0.5137,-0.5121,-0.5198,-0.5156,-0.5126,-0.5153,-0.5152,-0.5208,-0.5215,-0.5234,-0.5307,-0.5311,-0.5264,-0.5266,-0.5268,-0.527,0,0,0,0,0,0,0,-0.4966,-0.4977,-0.509,-0.5071,-0.5075,-0.5077,-0.5087,-0.5136,-0.5173,-0.5128,-0.5129,-0.5139,-0.5209,-0.523,-0.5236,-0.5312,-0.5263,-0.5268,-0.5271,-0.5272,-0.5432,-0.5434,0,0,0,0,0,0,-0.4957,-0.4973,-0.5088,-0.5093,-0.5019,-0.5081,-0.5092,-0.5119,-0.5172,-0.5179,-0.514,-0.514,-0.5222,-0.5231,-0.524,-0.5306,-0.5268,-0.5273,-0.5276,-0.5431,-0.5433,-0.5434,0,0,0,0,0,0,-0.4954,-0.4967,-0.5084,-0.5033,-0.5048,-0.5085,-0.5115,-0.5121,-0.5141,-0.5181,-0.5188,-0.5154,-0.5222,-0.5233,-0.5287,-0.5309,-0.5275,-0.5279,-0.5429,-0.5431,-0.5433,-0.5438,0,0,0,0,0,0,-0.4949,-0.4966,-0.4987,-0.5034,-0.5051,-0.513,-0.5117,-0.5124,-0.5149,-0.5149,-0.5196,-0.5203,-0.5221,-0.528,-0.5291,-0.5315,-0.5283,-0.5427,-0.543,-0.5433,-0.5436,-0.544,-0.5444,0,0,0,0,0,-0.4944,-0.4985,-0.4988,-0.5002,-0.5078,-0.5131,-0.5141,-0.5162,-0.5151,-0.5173,-0.5198,-0.5202,-0.5305,-0.5285,-0.5298,-0.5323,-0.5426,-0.5429,-0.5433,-0.5435,-0.544,-0.5444,0,0,0,0,0,0,-0.4941,-0.4992,-0.4995,-0.5053,-0.5088,-0.5133,-0.5161,-0.5166,-0.5205,-0.5203,-0.5227,-0.5237,-0.529,-0.5312,-0.5289,-0.5378,-0.5364,-0.537,-0.5361,-0.5366,-0.537,-0.5363,-0.5287,0,0,0,0,0,-0.4947,-0.4986,-0.5028,-0.5075,-0.5092,-0.5124,-0.5148,-0.516,-0.5197,-0.5212,-0.5241,-0.5277,-0.5317,-0.5343,-0.5382,-0.544,-0.545,-0.5463,-0.5467,-0.547,-0.5475,-0.5506,-0.5512,-0.5445,-0.5445,-0.5445,0,0,-0.496,-0.4992,-0.5016,-0.5076,-0.5104,-0.5143,-0.5136,-0.5178,-0.5208,-0.5218,-0.5271,-0.5293,-0.5334,-0.539,-0.5416,-0.541,-0.5496,-0.5474,-0.5476,-0.5479,-0.551,-0.5516,-0.5522,-0.5447,-0.5447,-0.5446,0,0,-0.5003,-0.5032,-0.5074,-0.5103,-0.5145,-0.5166,-0.5176,-0.522,-0.5236,-0.5289,-0.5297,-0.5332,-0.5401,-0.543,-0.5453,-0.5507,-0.5511,-0.5519,-0.5539,-0.5569,-0.5574,-0.5579,-0.5597,-0.5604,-0.5524,-0.5524,-0.5524,0,-0.5014,-0.5074,-0.5095,-0.5137,-0.5163,-0.5174,-0.5216,-0.5243,-0.5296,-0.5313,-0.5306,-0.5393,-0.5421,-0.5483,-0.5496,-0.5515,-0.5527,-0.5514,-0.5572,-0.5577,-0.5581,-0.5599,-0.5606,-0.5525,-0.5525,-0.5525,-0.5525,0,-0.5085,-0.5127,-0.5155,-0.5206,-0.5235,-0.5277,-0.5304,-0.5331,-0.5341,-0.5362,-0.5415,-0.545,-0.5496,-0.5511,-0.5522,-0.5575,-0.557,-0.5567,-0.5553,-0.5588,-0.5605,-0.5612,-0.5526,-0.5525,-0.5525,-0.5525,0,0,-0.513,-0.5191,-0.5201,-0.5224,-0.5272,-0.5304,-0.5346,-0.5391,-0.5413,-0.545,-0.5485,-0.5543,-0.554,-0.5567,-0.5581,-0.5607,-0.5646,-0.5601,-0.5602,-0.5607,-0.5706,-0.5707,-0.5715,-0.5649,-0.5651,-0.5652,-0.5702,0,-0.5178,-0.5254,-0.5273,-0.5337,-0.5375,-0.5386,-0.5423,-0.5456,-0.5476,-0.5511,-0.5534,-0.5574,-0.5568,-0.5584,-0.5611,-0.5636,-0.5666,-0.5633,-0.5682,-0.5684,-0.5671,-0.5724,-0.5726,-0.5771,-0.5709,-0.571,-0.5711,0,-0.5245,-0.5283,-0.535,-0.5392,-0.5409,-0.5441,-0.5483,-0.5517,-0.5554,-0.5567,-0.5597,-0.5608,-0.5652,-0.5636,-0.5696,-0.5673,-0.5695,-0.571,-0.5712,-0.5717,-0.5699,-0.5729,-0.5786,-0.5793,-0.5722,-0.5721,-0.572,0,-0.527,-0.5337,-0.5386,-0.5405,-0.5456,-0.5478,-0.55,-0.5536,-0.5561,-0.5598,-0.5615,-0.5657,-0.5679,-0.5711,-0.5733,-0.5719,-0.5791,-0.5777,-0.5802,-0.5802,-0.5817,-0.5815,-0.5877,-0.5831,-0.5831,-0.5831,-0.5831,0,-0.5322,-0.5363,-0.5398,-0.5428,-0.5473,-0.5495,-0.554,-0.5562,-0.5594,-0.5628,-0.564,-0.5672,-0.5699,-0.5734,-0.5752,-0.5798,-0.5809,-0.582,-0.5824,-0.5819,-0.5817,-0.5833,-0.583,-0.5833,-0.5833,-0.5832,-0.5832,0,-0.5357,-0.5382,-0.5436,-0.5479,-0.5491,-0.5522,-0.5559,-0.5588,-0.5609,-0.5652,-0.5663,-0.5696,-0.5738,-0.5763,-0.5816,-0.5828,-0.5879,-0.5882,-0.5866,-0.5868,-0.5891,-0.5888,-0.5965,-0.5975,-0.5923,-0.5924,-0.5924,0,-0.5388,-0.542,-0.5466,-0.549,-0.5512,-0.555,-0.5576,-0.5598,-0.5625,-0.5669,-0.5693,-0.5736,-0.5771,-0.5838,-0.5866,-0.5907,-0.591,-0.5934,-0.5916,-0.591,-0.591,-0.5907,-0.591,-0.5937,-0.5937,-0.5938,-0.5938,0,-0.5441,-0.5451,-0.5488,-0.5529,-0.556,-0.5593,-0.5626,-0.5645,-0.5673,-0.5702,-0.5745,-0.5772,-0.5827,-0.5869,-0.5911,-0.5934,-0.594,-0.5943,-0.5951,-0.5946,-0.5935,-0.594,-0.5874,-0.5941,-0.5941,-0.5941,-0.5941,-0.594,-0.5475,-0.5503,-0.5539,-0.5579,-0.5607,-0.5637,-0.5667,-0.5691,-0.5727,-0.5773,-0.5784,-0.5829,-0.5865,-0.5923,-0.5946,-0.5981,-0.5977,-0.5989,-0.5992,-0.5994,-0.5994,-0.593,-0.5989,-0.5989,-0.5989,-0.5989,-0.5989,0,-0.5527,-0.5551,-0.5587,-0.5633,-0.5665,-0.5668,-0.5705,-0.5731,-0.577,-0.5803,-0.5838,-0.5887,-0.5927,-0.5958,-0.6,-0.6022,-0.6026,-0.6032,-0.603,-0.6035,-0.5996,-0.5984,-0.6028,-0.6028,-0.6028,-0.6028,-0.6028,-0.6028,-0.5558,-0.5605,-0.562,-0.5681,-0.5704,-0.5748,-0.5769,-0.5797,-0.5823,-0.5877,-0.5911,-0.5931,-0.5963,-0.6007,-0.6044,-0.6052,-0.6066,-0.6072,-0.608,-0.6043,-0.6038,-0.6034,-0.6024,-0.6075,-0.6075,-0.6117,-0.6117,-0.6118]},{"header":{"parameterUnit":"m.s-1","parameterCategory":1,"la1":30.2991,"la2":30.254,"lo1":-89.0895,"lo2":-89.0444,"dy":0.0017,"dx":0.0017,"nx":28,"ny":28,"refTime":"2023-08-17T03:00:00:Z","depth":0,"parameterNumber":3,"parameterNumberName":"V-component_of_WINDS"},"data":[0,0,0,0,0,0,0,0,0,0,0,0,0,0,0,0,0,0,0,0,0,0,0,0,0,0,0,0,0,0,0,0,0,0,0,0,0,0,0,0,0,0,0,0,0,0,0,0,0,0,0,0,0,0,0,0,0,0,-0.6854,-0.6853,0,-0.6836,-0.6836,-0.6836,-0.6792,-0.6791,-0.679,-0.6789,-0.6771,-0.6772,-0.6772,0,0,0,0,0,0,0,0,0,0,0,0,0,-0.685,-0.685,-0.6854,-0.6853,-0.6853,-0.6836,-0.6836,-0.6836,-0.6792,-0.6791,-0.6789,-0.6788,-0.6771,-0.6772,-0.6772,0,0,0,0,0,0,0,0,0,0,0,0,0,-0.6844,-0.685,-0.6854,-0.6829,-0.6827,-0.6836,-0.6836,-0.6835,-0.6792,-0.6791,-0.6789,-0.6788,-0.6771,-0.6772,-0.6772,-0.6804,0,0,-0.6774,-0.6774,0,0,0,0,0,0,0,0,-0.6844,-0.6844,-0.6833,-0.6831,-0.6828,-0.6815,-0.6828,-0.6825,-0.6792,-0.6805,-0.6789,-0.6787,-0.6787,-0.6786,-0.6786,-0.6803,-0.6802,-0.6774,-0.6774,-0.6775,-0.6775,0,0,0,0,0,0,0,-0.6845,-0.6845,-0.6847,-0.6833,-0.683,-0.6819,-0.6817,-0.6827,-0.6804,-0.6804,-0.6801,-0.6799,-0.6785,-0.6785,-0.6785,-0.6802,-0.6774,-0.6775,-0.6775,-0.6775,-0.6845,-0.6847,0,0,0,0,0,0,-0.6849,-0.6845,-0.6847,-0.6846,-0.6833,-0.6821,-0.6818,-0.682,-0.6804,-0.68,-0.68,-0.6797,-0.6785,-0.6784,-0.6784,-0.6821,-0.6775,-0.6775,-0.6776,-0.6844,-0.6846,-0.6847,0,0,0,0,0,0,-0.6849,-0.6849,-0.6848,-0.6845,-0.6844,-0.6822,-0.6825,-0.6821,-0.6821,-0.6801,-0.6797,-0.6805,-0.6784,-0.6783,-0.68,-0.682,-0.6775,-0.6776,-0.6842,-0.6844,-0.6846,-0.6895,0,0,0,0,0,0,-0.6849,-0.685,-0.6861,-0.6845,-0.6844,-0.6863,-0.6826,-0.6821,-0.6822,-0.6818,-0.6804,-0.6801,-0.6783,-0.6799,-0.68,-0.682,-0.6777,-0.684,-0.6843,-0.6846,-0.6892,-0.6899,-0.6905,0,0,0,0,0,-0.6849,-0.6875,-0.6862,-0.6862,-0.6858,-0.6865,-0.6864,-0.6843,-0.6824,-0.6835,-0.6823,-0.6801,-0.6817,-0.6801,-0.6802,-0.6822,-0.6839,-0.6842,-0.6846,-0.6889,-0.6897,-0.6905,0,0,0,0,0,0,-0.6894,-0.6873,-0.6858,-0.688,-0.6874,-0.6857,-0.6871,-0.6852,-0.6852,-0.6848,-0.6822,-0.682,-0.684,-0.6832,-0.6814,-0.6853,-0.6825,-0.6828,-0.6857,-0.6865,-0.6872,-0.6873,-0.6777,0,0,0,0,0,-0.6907,-0.6913,-0.6894,-0.6916,-0.6914,-0.6893,-0.6895,-0.6879,-0.6873,-0.687,-0.6859,-0.6853,-0.6857,-0.686,-0.6863,-0.689,-0.6887,-0.6904,-0.6911,-0.6917,-0.6921,-0.6936,-0.6944,-0.6858,-0.6858,-0.6858,0,0,-0.6933,-0.6922,-0.6928,-0.6925,-0.6919,-0.6927,-0.6892,-0.6901,-0.6907,-0.6872,-0.6887,-0.6878,-0.687,-0.6892,-0.6901,-0.6887,-0.6943,-0.6921,-0.6926,-0.6926,-0.694,-0.6948,-0.6955,-0.6861,-0.686,-0.686,0,0,-0.6985,-0.6977,-0.6994,-0.6989,-0.698,-0.6966,-0.697,-0.6956,-0.6949,-0.6964,-0.6937,-0.6944,-0.6951,-0.6947,-0.6946,-0.6997,-0.6977,-0.6998,-0.7033,-0.7048,-0.7055,-0.7061,-0.7081,-0.7088,-0.7002,-0.7002,-0.7002,0,-0.7018,-0.7029,-0.7005,-0.7017,-0.7017,-0.6985,-0.7003,-0.6999,-0.6992,-0.6993,-0.6976,-0.6985,-0.6978,-0.6999,-0.7011,-0.7011,-0.7016,-0.7,-0.7056,-0.7062,-0.7067,-0.7085,-0.7092,-0.7005,-0.7005,-0.7004,-0.7004,0,-0.7071,-0.708,-0.7095,-0.7089,-0.709,-0.7105,-0.7084,-0.7088,-0.7073,-0.7061,-0.7076,-0.7066,-0.7066,-0.707,-0.7054,-0.7089,-0.7081,-0.7061,-0.7032,-0.7078,-0.7095,-0.7102,-0.7009,-0.7008,-0.7007,-0.7006,0,0,-0.7152,-0.7133,-0.7139,-0.7136,-0.7125,-0.7131,-0.7144,-0.7145,-0.7149,-0.7145,-0.7157,-0.7164,-0.7145,-0.7144,-0.7128,-0.7141,-0.7183,-0.7119,-0.7118,-0.7132,-0.7223,-0.7239,-0.7248,-0.717,-0.7171,-0.7172,-0.7224,0,-0.7202,-0.7224,-0.7204,-0.723,-0.7238,-0.7208,-0.722,-0.7214,-0.7204,-0.7209,-0.7197,-0.7203,-0.7177,-0.7176,-0.7188,-0.7176,-0.7201,-0.7171,-0.7181,-0.7182,-0.7186,-0.7256,-0.7273,-0.7323,-0.723,-0.7231,-0.7232,0,-0.7263,-0.7263,-0.729,-0.7277,-0.728,-0.7291,-0.729,-0.7295,-0.7289,-0.728,-0.7279,-0.7259,-0.7272,-0.7244,-0.7262,-0.7242,-0.7245,-0.7239,-0.7241,-0.7242,-0.7211,-0.7261,-0.7338,-0.7346,-0.7242,-0.7241,-0.724,0,-0.7321,-0.7327,-0.7344,-0.7343,-0.7328,-0.7337,-0.7331,-0.7323,-0.7325,-0.7324,-0.7325,-0.7326,-0.7327,-0.7328,-0.7309,-0.729,-0.733,-0.73,-0.7324,-0.7325,-0.7335,-0.7335,-0.7416,-0.7335,-0.7335,-0.7335,-0.7334,0,-0.738,-0.7398,-0.737,-0.7381,-0.7401,-0.7377,-0.7398,-0.7389,-0.7382,-0.7391,-0.7364,-0.7374,-0.7348,-0.7354,-0.7339,-0.7358,-0.7358,-0.7352,-0.7348,-0.7355,-0.7356,-0.7357,-0.7354,-0.7337,-0.7336,-0.7336,-0.7335,0,-0.7448,-0.743,-0.7447,-0.7432,-0.7429,-0.7444,-0.7431,-0.7441,-0.7428,-0.744,-0.7442,-0.7422,-0.7429,-0.741,-0.7413,-0.7403,-0.743,-0.742,-0.7433,-0.743,-0.7457,-0.7455,-0.7542,-0.7553,-0.7464,-0.7465,-0.7465,0,-0.7488,-0.7501,-0.7487,-0.7492,-0.7488,-0.7495,-0.7496,-0.7473,-0.7477,-0.747,-0.7481,-0.7485,-0.7488,-0.75,-0.7486,-0.7489,-0.7479,-0.751,-0.748,-0.7487,-0.7482,-0.7482,-0.7483,-0.7516,-0.7517,-0.7518,-0.7519,0,-0.756,-0.755,-0.7554,-0.7555,-0.7558,-0.7558,-0.7556,-0.7561,-0.7536,-0.7541,-0.7548,-0.7549,-0.7553,-0.7558,-0.7558,-0.7552,-0.7532,-0.7528,-0.7535,-0.7543,-0.755,-0.7548,-0.7451,-0.7527,-0.7526,-0.7525,-0.7525,-0.7525,-0.7616,-0.7627,-0.762,-0.7625,-0.7621,-0.762,-0.7629,-0.7617,-0.7622,-0.7623,-0.7609,-0.7619,-0.7613,-0.761,-0.7607,-0.7614,-0.76,-0.7609,-0.7611,-0.7614,-0.7619,-0.7548,-0.7614,-0.7614,-0.7614,-0.7613,-0.7613,0,-0.7688,-0.7682,-0.7687,-0.7685,-0.769,-0.767,-0.7666,-0.7672,-0.7681,-0.7676,-0.7679,-0.7687,-0.7692,-0.7679,-0.7682,-0.769,-0.7681,-0.7692,-0.7692,-0.7691,-0.7631,-0.7626,-0.77,-0.77,-0.77,-0.7699,-0.7699,-0.7699,-0.7727,-0.7745,-0.7735,-0.7751,-0.7744,-0.7754,-0.7754,-0.7753,-0.7749,-0.7759,-0.7763,-0.7754,-0.7747,-0.7749,-0.7753,-0.7749,-0.7752,-0.7767,-0.776,-0.7704,-0.7695,-0.7687,-0.7683,-0.7767,-0.7767,-0.7819,-0.782,-0.782]}]]